Regional Weather Roundup
Issued by NWS

Home | Current Version | Previous Version | Text Only | Print | Product List | Glossary On
Versions: 1 2 3 4 5 6 7 8 9 10 11 12 13 14 15 16 17 18 19 20 21 22 23 24 25 26 27 28 29 30 31 32 33 34 35 36 37 38 39 40 41 42 43 44 45 46 47 48 49 50
000
ASUS43 KTOP 250408
RWRKS

WEATHER ROUNDUP FOR KANSAS
NATIONAL WEATHER SERVICE GOODLAND KS
1100 PM CDT THU JUL 24 2014

NOTE:  "FAIR" INDICATES FEW OR NO CLOUDS BELOW 12,000 FEET WITH NO
SIGNIFICANT WEATHER AND/OR OBSTRUCTIONS TO VISIBILITY.

KSZ001>006-013>018-027>032-041>047-250500-
NORTHWEST KANSAS

CITY           SKY/WX    TMP DP  RH WIND       PRES   REMARKS
GOODLAND       CLOUDY    88  48  25 SW14G22   29.93S
HAYS           MOCLDY    64  64 100 S18G24    29.89F
HILL CITY      CLOUDY    86  69  56 S20G29    29.85F
RUSSELL        PTCLDY    83  71  67 S21       29.87F
$$

KSZ061>065-074>080-084>089-250500-
SOUTHWEST KANSAS

CITY           SKY/WX    TMP DP  RH WIND       PRES   REMARKS
DODGE CITY     CLOUDY    82  67  60 SE13      29.96R
ELKHART          N/A     81  55  40 S14         N/A
GARDEN CITY    MOCLDY    76  59  55 SE9       29.94R
GREAT BEND     MOCLDY    82  70  65 S20       29.91S
LIBERAL        MOCLDY    84  59  42 S16       30.00R
PRATT          MOCLDY    81  70  69 S14G20    29.97S
$$

KSZ066>073-081>083-090>101-250500-
SOUTHEAST KANSAS

CITY           SKY/WX    TMP DP  RH WIND       PRES   REMARKS
CHANUTE        CLEAR     74  66  76 SE7       30.00F
COFFEYVILLE    CLEAR     76  72  87 SE6       30.00R
HUTCHINSON     PTCLDY    81  69  67 SE14      29.95S
MEDICINE LODGE   N/A     84  72  67 S7        29.95R
NEWTON         CLEAR     79  64  61 SE13      30.00F
PARSONS        CLEAR     76  68  76 E5        30.01S
WICHITA INTL   PTCLDY    81  70  69 SE14      29.97R
WICHITA JABRA  CLEAR     79  70  74 SE12      29.97S
WICHITA MCCONL PTCLDY    79  73  80 SE12      29.98R
WINFIELD       PTCLDY    79  71  76 SE8       30.00R
$$

KSZ007>012-019>026-033>040-048>060-102>105-250500-
NORTHEAST KANSAS

CITY           SKY/WX    TMP DP  RH WIND       PRES   REMARKS
CONCORDIA      PTCLDY    80  68  66 S22G30    29.89F
EMPORIA        CLEAR     75  67  76 SE9       29.98S
LAWRENCE       CLEAR     69  61  75 SE7       30.00F
MANHATTAN      MOCLDY    78  67  68 E6        29.93F
MARYSVILLE     PTCLDY    75  63  64 SE13      29.92F
OLATHE IND     CLEAR     72  60  66 SE7       30.02F
OLATHE EXE     CLEAR     72  59  63 SE7       30.02S
SALINA         CLEAR     83  67  58 SE17      29.90F
TOPEKA BILLARD CLEAR     76  61  59 E9        29.99S
TOPEKA FORBES  CLEAR     75  61  61 SE10      29.99S
$$


USA.gov is the U.S. government's official web portal to all federal, state and local government web resources and services.